This demonstration page uses our WeatherBlox Daily Observations layout. Learn more.

36.17497, -115.13722

Hourly Observations for June 16, 2016

Temp ( °F °C ) Dew Point ( °F °C ) Humidity (%) Winds ( mph kmh ) Pressure ( in mb ) Visibility ( mi km ) Precip ( " mm )
12:53 am 00:53 Clear 75 23.9 38 3.3 26 26 SW 25 41 29.73 1007 10 16.0934 0 0
1:53 am 01:53 Clear 73 22.8 38 3.3 28 28 SW 16 26 29.73 1007 10 16.0934 0 0
2:53 am 02:53 Clear 73 22.8 37 2.8 27 27 SSE 23 37 29.74 1007 10 16.0934 0 0
3:53 am 03:53 Clear 73 22.8 36 2.2 26 26 S 17 28 29.75 1008 10 16.0934 0 0
4:53 am 04:53 Clear 72 22.2 35 1.7 26 26 SSW 7 11 29.77 1008 10 16.0934 0 0
5:53 am 05:53 Sunny 70 21.1 37 2.8 30 30 WSW 7 11 29.8 1009 10 16.0934 0 0
6:53 am 06:53 Sunny 71 21.7 38 3.3 30 30 W 6 9 29.84 1011 10 16.0934 0 0
7:53 am 07:53 Sunny 73 22.8 37 2.8 27 27 W 3 6 29.87 1012 10 16.0934 0 0
8:53 am 08:53 Sunny 77 25 36 2.2 23 23 VRB 3 6 29.88 1012 10 16.0934 0 0
9:53 am 09:53 Sunny 79 26.1 29 -1.7 16 16 S 8 13 29.9 1013 10 16.0934 0 0
10:53 am 10:53 Sunny 84 28.9 25 -3.9 11 11 S 9 15 29.9 1013 10 16.0934 0 0
11:53 am 11:53 Sunny 87 30.6 18 -7.8 8 8 S 18 30 29.88 1012 10 16.0934 0 0
12:53 pm 12:53 Sunny 90 32.2 14 -10 6 6 SSW 21 33 29.87 1012 10 16.0934 0 0
1:53 pm 13:53 Sunny 91 32.8 13 -10.6 5 5 S 20 31 29.87 1012 10 16.0934 0 0
2:53 pm 14:53 Sunny 92 33.3 18 -7.8 6 6 S 18 30 29.86 1011 10 16.0934 0 0
3:53 pm 15:53 Sunny 92 33.3 21 -6.1 7 7 SSW 17 28 29.85 1011 10 16.0934 0 0
4:53 pm 16:53 Sunny 92 33.3 24 -4.4 8 8 WSW 20 31 29.84 1011 10 16.0934 0 0
5:53 pm 17:53 Sunny 91 32.8 28 -2.2 10 10 SW 15 24 29.84 1010 10 16.0934 0 0
6:53 pm 18:53 Sunny 90 32.2 31 -0.6 12 12 SW 17 28 29.84 1011 10 16.0934 0 0
7:53 pm 19:53 Sunny 87 30.6 32 0 14 14 SW 16 26 29.85 1011 10 16.0934 0 0
8:53 pm 20:53 Clear 86 30 33 0.6 15 15 WSW 14 22 29.86 1011 10 16.0934 0 0
9:53 pm 21:53 Clear 85 29.4 33 0.6 15 15 WSW 10 17 29.87 1011 10 16.0934 0 0
10:53 pm 22:53 Clear 84 28.9 34 1.1 17 17 SSW 8 13 29.87 1012 10 16.0934 0 0
11:53 pm 23:53 Clear 81 27.2 34 1.1 18 18 VRB 3 6 29.88 1012 10 16.0934 0 0

Powered by AerisWeather